User: anonymous   Login
Location: Pabrico
(37.5827°N, 122.0063°W)
Time: 18:19:27
(UTC+00:00)
Language:

Cosmos 2112 Rocket - Orbit

View from above orbital plane
View from above orbital plane
View from above satellite
View from above satellite

Ground track
Ground track

The orbit data is extracted from the following two-line orbital elements,

1 21015U 90111B   24171.91676792  .00000246  00000-0  92445-4 0  9993
2 21015  74.0499 121.3408 0020465 114.3675 245.9617 14.36580830853331
Epoch (UTC): 19 June 2024 22:00:08
Eccentricity: 0.0020465
inclination: 74.0499°
perigee height: 755 km
apogee height: 784 km
right ascension of ascending node: 121.3408°
argument of perigee: 114.3675°
revolutions per day: 14.36580830
mean anomaly at epoch: 245.9617°
orbit number at epoch: 85333

The dashed part of the orbit path shows where the satellite is in the earth's shadow,  

DLR